This is the latest recevied weather packets stored in our database for station/object OE6PLD-13. If no packets are shown the sender has not sent any weather packets the latest 10 day(s).
| Time | Temp. | Humidity | Pressure | Rain* | Wind** | Luminosity | Snow |
|---|---|---|---|---|---|---|---|
| 1777526031 | 1.11° C | 69% | 1019.8 hPa | 0.76 mm | - | 78 W/m² | - |
| 1777525848 | 1.11° C | 69% | 1019.6 hPa | 0.76 mm | - | 78 W/m² | - |
| 1777525664 | 1.11° C | 70% | 1019.6 hPa | 0.76 mm | - | 80 W/m² | - |
| 1777525481 | 0.56° C | 70% | 1019.7 hPa | 0.76 mm | - | 79 W/m² | - |
| 1777525298 | 0.56° C | 71% | 1019.6 hPa | 0.76 mm | - | 79 W/m² | - |
| 1777525114 | 0.56° C | 72% | 1019.7 hPa | 0.76 mm | - | 71 W/m² | - |
| 1777524931 | 0.56° C | 72% | 1019.4 hPa | 0.76 mm | - | 70 W/m² | - |
| 1777524748 | 0° C | 73% | 1019.4 hPa | 0.76 mm | - | 65 W/m² | - |
| 1777524564 | 0° C | 73% | 1019.5 hPa | 0.76 mm | - | 55 W/m² | - |
| 1777524381 | 0° C | 73% | 1019.4 hPa | 0.76 mm | - | 55 W/m² | - |
| 1777524198 | 0° C | 74% | 1019.3 hPa | 0.76 mm | - | 49 W/m² | - |
| 1777524014 | -0.56° C | 75% | 1019.3 hPa | 0.76 mm | - | 45 W/m² | - |
| 1777523831 | -0.56° C | 75% | 1019.4 hPa | 0.76 mm | - | 39 W/m² | - |
| 1777523648 | -0.56° C | 75% | 1019.2 hPa | 0.76 mm | - | 33 W/m² | - |
| 1777523464 | -1.11° C | 75% | 1019.3 hPa | 0.76 mm | - | 28 W/m² | - |
| 1777523281 | -1.11° C | 76% | 1019.2 hPa | 0.76 mm | - | 23 W/m² | - |
| 1777523097 | -1.11° C | 76% | 1019.2 hPa | 0.76 mm | - | 19 W/m² | - |
| 1777522914 | -1.11° C | 75% | 1019.2 hPa | 0.76 mm | - | 18 W/m² | - |
| 1777522731 | -0.56° C | 76% | 1019.2 hPa | 0.76 mm | - | 16 W/m² | - |
| 1777522547 | -1.11° C | 77% | 1019.2 hPa | 0.76 mm | - | 14 W/m² | - |
| 1777522364 | -1.11° C | 76% | 1019.1 hPa | 0.76 mm | - | 13 W/m² | - |
| 1777522181 | -1.11° C | 76% | 1019.1 hPa | 0.76 mm | - | 12 W/m² | - |
| 1777521997 | -1.11° C | 75% | 1019.1 hPa | 0.76 mm | - | 9 W/m² | - |
| 1777521814 | -1.11° C | 76% | 1019 hPa | 0.76 mm | - | 9 W/m² | - |
| 1777521630 | -1.11° C | 75% | 1019.1 hPa | 0.76 mm | - | 8 W/m² | - |
* Rain latest hour (hover to see other rain measurements)
** Current wind speed in m/s (hover to see current wind gust speed)